Preview of NWS' New Version of Forecast
This preview is not operational and should not be used for support decisions.

Regional Weather Roundup (RWR)

Issued by National Weather Service (NWS)

                            
000
ASUS43 KLSX 200207
RWRMO 

WEATHER SUMMARY FOR MISSOURI
NATIONAL WEATHER SERVICE SPRINGFIELD MO
900 PM CDT FRI APR 19 2019

NOTE: "FAIR" INDICATES FEW OR NO CLOUDS BELOW 12,000 FEET WITH NO
       SIGNIFICANT WEATHER AND/OR OBSTRUCTIONS TO VISIBILITY.
       CURRENT SKY AND/OR WEATHER CONDITIONS ARE NOT AVAILABLE FOR
       CHILLICOTHE AND FARMINGTON.

MOZ001>031-035>038-043-044-053-054-200300-
...NORTHERN AND WESTERN MISSOURI...
  
CITY           SKY/WX    TMP DP  RH WIND       PRES   REMARKS
KANSAS CTY INT CLEAR     57  29  34 NW5       29.96S                  
KANSAS C DTWN  CLEAR     57  34  41 NW3       29.95S                  
LEE'S SUMMIT   CLEAR     56  30  37 NW6       29.96S                  
ST JOSEPH      CLEAR     52  32  46 NW3       29.97R                  
CHILLICOTHE      N/A     50  32  50 CALM      29.95R                  
KIRKSVILLE     CLEAR     50  30  46 N7        29.92S                  
     
$$
MOZ066>068-077>081-088>096-101>105-200300-
...SOUTHWEST MISSOURI...
  
CITY           SKY/WX    TMP DP  RH WIND       PRES   REMARKS
SPRINGFIELD    CLEAR     47  32  56 NW7       29.93R                  
JOPLIN         CLEAR     51  34  52 NW5       29.97R                  
BRANSON        CLEAR     52  27  37 NW9       29.94R                  
               
$$
MOZ032>034-039>042-045>050-055>058-069>072-200300-
...CENTRAL MISSOURI...  
  
CITY           SKY/WX    TMP DP  RH WIND       PRES   REMARKS
COLUMBIA       CLEAR     51  30  44 NW9       29.89R                  
JEFFERSON CITY CLEAR     56  25  30 NW5       29.89R                  
ROLLA          CLEAR     49  26  41 NW7       29.87R                  
SEDALIA        CLEAR     49  35  58 NW6       29.93S                  
WHITEMAN AFB   CLEAR     53  33  46 NW7       29.90R                  
WARRENSBURG    CLEAR     54  32  43 NW3       29.95R                  
OSAGE BEACH    CLEAR     52  28  39 NW5       29.91R                  
               
$$
MOZ051-052-059>065-200300-
...EAST CENTRAL MISSOURI...
  
CITY           SKY/WX    TMP DP  RH WIND       PRES   REMARKS
ST LOUIS INTL  PTCLDY    53  29  39 N9        29.81R                  
SPIRIT OF STL  CLEAR     54  27  35 NW10      29.82R                  
ST CHARLES     CLEAR     54  29  38 N9        29.82R                  
                   
$$
MOZ072>076-082>087-097>100-106>115-200300-
...SOUTH CENTRAL AND SOUTHEAST MISSOURI...
  
CITY           SKY/WX    TMP DP  RH WIND       PRES   REMARKS
CAPE GIRARDEAU FAIR      50  39  66 NW8       29.74R                  
FARMINGTON     CLEAR     50  32  50 NW9       29.79R                  
POPLAR BLUFF   CLOUDY    51  40  65 NW5       29.78R                  
WEST PLAINS    CLEAR     51  28  41 NW8       29.87R                  
                                       
$$